Probability
1 2 3 3 2 1 0 0 0 0 0 0 0 0 0 0 0 0 0 0 0 0 0 0 0 0 0 0 0 0 0 0 0 0 0 0 0 0 0 0 0 0 0
1 2 2 2 1 0 0 0 0 0 0 0 0 0 0 0 0 0 0 0 0 0 0 0 0 0 0 0 0 0 0 0 0 0 0 0 0 0 0 0 0 0 0
1 1 1 1 0 0 0 0 1 1 1 1 0 0 0 0 0 0 0 0 0 0 0 0 0 0 0 0 0 0 0 0 0 0 0 0 0 0 0 0 0 0 1
1 0 1 1 0 0 0 0 1 2 2 2 2 1 1 0 0 0 0 0 0 0 0 0 0 0 0 0 0 0 0 0 0 0 0 0 0 0 0 0 0 0 1
0 1 2 2 1 0 0 0 1 3 3 3 4 3 3 1 0 0 0 0 0 0 0 0 0 0 0 0 0 0 0 0 0 0 0 0 0 0 0 0 0 0 1
0 1 2 3 2 1 1 1 1 2 2 3 5 6 5 3 2 2 2 1 0 0 0 0 0 0 0 0 0 0 0 0 0 0 0 0 0 0 0 0 0 0 0
0 1 2 3 3 3 2 2 1 1 1 3 6 7 6 5 5 4 3 2 1 0 0 0 0 0 0 0 0 0 0 0 0 0 0 1 1 1 1 0 0 0 0
1 1 3 3 3 3 3 3 3 3 3 4 7 8 7 7 5 4 3 3 2 1 0 0 0 0 0 0 0 0 0 0 0 1 1 2 3 2 1 0 0 0 0
2 3 3 3 3 3 3 3 4 6 6 6 7 8 8 7 5 4 4 4 3 1 1 1 1 1 0 0 0 0 0 0 1 2 3 3 3 3 2 0 0 0 0
3 3 3 3 3 3 2 2 5 7 7 7 8 8 9 8 7 6 5 4 3 3 3 3 3 2 1 1 0 0 1 1 2 3 3 3 3 2 1 1 1 0 0
3 3 3 3 3 1 1 2 4 7 7 8 9 9 9 9 8 7 5 4 4 4 5 6 5 4 3 2 1 1 2 3 3 3 3 3 1 1 1 2 2 1 1
3 3 2 3 2 1 1 2 5 7 8 10 11 9 8 7 7 6 4 3 4 6 7 7 6 5 4 4 3 3 3 4 4 3 3 2 1 0 1 2 2 2 2
3 2 1 1 2 1 2 3 5 6 8 10 10 9 8 7 7 6 5 5 6 7 8 8 7 6 6 5 4 4 4 4 3 3 2 1 0 0 0 1 1 1 1
3 2 1 1 1 2 3 5 6 7 9 10 9 9 9 8 8 8 8 8 9 9 8 7 6 6 6 6 6 5 4 3 3 2 1 0 0 0 0 0 0 0 0
2 2 1 1 2 3 5 8 9 9 11 11 10 10 10 9 8 8 8 9 9 9 8 6 5 4 5 6 6 5 5 3 2 1 0 0 0 0 0 0 0 0 0
2 3 3 2 3 5 7 10 11 11 13 13 13 12 12 10 8 7 7 8 9 10 9 7 5 4 4 4 4 4 4 3 2 1 0 0 0 0 0 0 0 0 0
3 5 6 5 5 6 8 10 10 11 14 15 15 14 13 12 9 6 6 8 10 10 11 9 7 5 4 3 3 3 3 3 3 3 2 2 1 1 1 1 1 1 0
5 7 8 7 7 7 9 10 10 11 14 17 16 15 14 12 10 8 7 9 10 11 11 11 10 7 5 3 3 3 3 4 4 5 5 5 5 3 3 3 3 2 1
7 8 8 8 8 10 12 13 12 13 15 18 19 17 14 12 10 9 9 9 10 10 10 10 11 9 6 4 3 3 4 5 6 6 6 6 5 3 2 3 4 3 2
10 9 8 8 10 13 16 16 14 14 16 18 18 16 14 12 11 9 10 10 10 9 10 10 11 10 8 5 3 3 5 6 6 6 6 4 2 1 1 3 4 4 2
12 11 9 9 10 13 17 17 15 15 16 17 16 14 12 11 10 10 11 10 9 10 11 11 10 10 10 7 4 3 4 7 7 8 7 4 1 0 0 1 3 3 1
14 14 13 12 11 13 16 18 16 15 17 17 15 13 12 11 10 11 11 10 9 10 12 11 10 11 12 9 5 2 3 6 8 9 9 7 3 0 0 0 1 1 1
15 16 16 15 14 14 16 17 15 16 17 17 15 14 13 11 10 11 11 9 9 11 12 11 11 13 14 12 8 4 3 4 6 8 8 6 2 0 0 0 0 0 1
13 15 17 18 16 15 15 15 15 15 15 15 15 14 12 10 10 10 10 9 10 12 14 14 14 14 13 12 10 9 6 5 5 6 6 3 2 1 1 1 1 1 2
10 12 15 17 16 15 14 14 14 14 13 12 12 13 12 11 11 11 9 8 8 10 12 14 14 12 11 10 9 10 9 7 5 5 4 3 2 2 3 3 3 3 4
8 10 13 14 14 14 14 15 14 13 12 11 10 12 13 13 12 12 9 7 6 6 7 9 10 10 9 7 5 6 8 7 5 4 4 3 3 3 4 5 5 5 5
Wind_Speed
4 3 3 3 3 2 2 2 2 2 2 2 1 1 1 0 0 0 1 1 2 3 3 2 2 2 2 2 3 3 3 2 2 2 2 2 2 2 1 1 1 1 0
3 4 3 3 4 3 3 2 2 2 2 2 1 1 1 1 1 0 1 2 2 3 3 3 2 2 2 2 2 3 2 1 1 2 2 1 2 2 2 1 1 0 0
7 6 5 5 4 4 4 4 3 2 2 2 2 2 2 2 2 1 1 1 2 2 2 3 2 2 3 2 2 3 3 2 1 1 2 2 1 1 2 2 1 1 1
7 7 6 6 6 6 4 3 3 2 2 3 3 3 2 1 1 0 0 1 2 2 2 2 3 2 2 2 2 2 2 3 1 1 1 1 2 2 0 1 1 1 1
8 8 8 7 6 5 4 3 3 2 2 3 3 3 2 1 1 1 1 1 1 1 2 2 2 2 2 2 2 2 2 2 2 2 1 1 1 1 2 1 1 1 1
8 7 6 5 4 4 4 3 3 2 2 3 3 3 4 3 2 2 1 1 1 1 1 1 2 2 2 2 2 2 2 2 2 2 2 2 2 2 2 2 1 1 1
7 7 7 7 6 6 5 4 4 3 3 3 3 3 4 4 3 2 2 1 1 0 0 1 1 1 1 2 2 2 2 2 2 2 1 1 1 2 2 2 1 0 1
7 8 8 8 8 7 6 5 5 4 3 4 3 3 3 2 2 2 2 2 1 1 1 1 1 1 1 2 2 2 2 2 2 1 1 1 1 2 2 3 3 1 0
8 8 8 8 8 7 7 7 6 5 4 4 3 3 3 3 2 2 2 1 1 1 2 2 2 1 1 2 2 1 1 2 1 1 1 1 0 1 1 2 2 3 1
6 7 6 7 7 7 6 6 6 6 4 4 3 3 3 3 3 2 2 2 2 2 2 2 2 2 2 2 2 2 1 2 1 1 2 1 0 0 1 1 1 1 2
7 7 6 6 6 5 6 6 5 4 4 4 3 3 3 2 2 2 2 2 2 2 2 2 2 2 2 2 2 2 2 2 2 1 2 1 1 1 1 1 1 1 2
5 5 5 5 6 6 6 6 6 5 5 4 4 3 3 3 3 2 2 2 2 2 2 2 2 2 2 2 2 2 2 2 2 1 2 1 1 1 1 1 1 1 1
3 3 3 4 5 6 6 6 6 6 5 5 4 3 3 3 3 3 2 2 2 2 2 2 2 2 2 2 2 2 2 2 2 2 2 1 2 1 1 1 1 1 1
3 3 3 3 4 4 5 6 5 5 5 5 5 4 4 3 3 3 3 2 2 2 2 2 2 2 2 2 2 2 2 2 1 1 1 1 2 2 1 1 1 1 1
2 3 4 3 4 4 4 5 5 5 5 5 5 4 4 3 3 3 3 3 2 2 2 2 2 2 2 2 3 3 3 2 2 1 1 1 1 2 2 1 2 2 2
4 4 4 4 4 5 5 5 5 5 5 5 5 4 4 3 3 3 3 3 2 2 2 2 2 2 2 3 4 4 3 3 2 1 1 1 1 1 1 2 2 3 3
4 5 5 5 6 5 6 6 6 6 6 5 5 5 5 4 4 4 3 3 3 3 2 2 2 2 2 3 4 5 4 3 3 2 1 1 0 1 1 1 1 1 2
4 5 4 4 4 4 4 5 6 6 6 6 5 5 5 4 4 4 4 3 2 3 3 3 3 2 2 4 4 4 3 2 2 3 3 2 1 1 1 1 1 1 2
4 4 4 4 3 4 5 5 6 6 6 6 6 5 5 5 4 4 4 3 3 3 3 3 3 3 3 4 5 5 3 2 3 2 2 3 3 3 3 3 2 1 2
2 2 2 3 4 4 5 6 6 7 7 7 6 6 6 6 5 5 4 3 3 4 3 3 4 4 4 5 6 6 3 3 2 2 2 3 4 4 4 4 3 3 3
1 1 2 3 3 4 5 5 6 7 7 6 5 5 5 6 6 5 3 3 2 2 3 3 3 3 4 5 6 7 4 4 3 3 2 3 4 5 5 4 4 4 3
1 0 1 1 1 3 5 5 5 5 4 5 5 5 5 5 5 4 4 3 3 2 3 3 3 3 3 4 5 8 7 6 4 4 3 3 4 5 5 4 3 3 2
1 1 2 1 0 2 3 4 3 3 5 5 5 5 4 4 4 5 4 3 3 3 3 3 3 3 2 3 4 6 7 7 4 3 4 3 3 4 3 4 4 3 2
1 1 2 2 0 0 1 3 2 4 4 5 4 4 4 3 3 3 4 4 4 4 3 4 4 4 3 3 3 3 3 4 4 3 3 3 2 2 2 2 2 3 3
0 1 1 1 1 1 1 2 3 4 4 3 3 3 3 3 3 3 4 4 4 5 5 5 5 5 5 6 6 4 4 4 4 3 1 1 1 2 2 2 2 2 2
1 1 1 1 2 2 2 3 3 4 5 3 3 3 3 3 3 3 2 3 4 5 7 7 6 5 6 5 7 8 7 6 6 4 3 3 4 4 4 3 3 3 3
Wind_Direction
204 174 175 169 149 148 151 153 142 136 125 109 112 115 124 119 89 146 150 141 137 132 136 140 142 133 133 139 129 120 109 97 100 90 61 39 49 59 47 39 52 39 75
192 184 179 175 169 171 176 170 169 157 151 140 131 131 130 141 136 60 92 118 130 136 143 141 143 137 129 121 123 130 132 129 108 118 101 35 11 17 32 42 57 36 47
195 192 188 188 179 182 190 190 188 174 158 132 105 87 75 65 61 56 61 87 121 132 134 140 146 145 143 147 152 153 153 152 108 115 137 139 195 334 1 22 33 48 53
196 192 189 190 194 197 190 190 181 172 154 136 130 130 132 137 161 145 120 68 100 116 129 137 145 151 151 154 169 160 150 145 144 107 91 131 148 147 352 351 19 31 45
195 193 194 195 196 188 180 180 170 174 158 148 155 148 143 148 120 94 82 61 61 88 118 138 145 151 152 159 163 146 147 154 162 160 146 122 106 135 155 250 342 9 347
194 193 193 185 183 177 174 168 167 184 166 159 161 162 159 147 130 120 105 71 61 64 82 127 137 146 151 164 166 157 154 162 156 154 156 160 166 174 164 180 221 300 319
185 185 187 185 185 183 180 176 173 191 181 172 174 174 171 162 164 167 170 158 127 122 108 114 131 138 150 148 143 141 145 152 151 167 175 182 195 167 155 153 166 215 315
185 190 193 190 188 187 183 179 182 194 184 182 186 175 166 167 174 177 176 176 183 190 135 116 117 121 125 128 131 134 143 137 151 162 158 163 189 172 168 165 155 147 354
189 193 189 188 186 187 189 185 189 195 188 187 179 169 166 165 171 166 159 155 163 150 131 131 125 118 110 117 123 124 126 124 134 145 141 141 173 168 174 168 167 163 181
191 193 189 190 188 189 188 182 186 190 186 178 181 176 170 168 164 147 151 154 161 148 136 130 127 115 109 117 116 114 117 113 105 117 112 98 90 103 132 161 171 174 170
194 192 191 191 185 179 179 182 184 178 173 176 175 164 161 150 139 143 159 163 158 157 149 142 127 118 114 112 112 114 114 115 107 100 116 105 94 96 99 111 137 154 158
190 185 183 181 179 181 183 183 183 183 183 173 166 161 149 135 138 153 166 156 152 153 149 139 130 133 129 125 133 135 124 131 131 121 116 118 113 102 113 131 142 162 177
152 151 163 179 186 185 182 181 181 184 176 164 162 155 155 155 160 164 159 149 148 142 141 145 148 152 145 137 145 138 131 133 136 135 142 153 136 143 158 152 142 169 156
149 152 167 178 181 179 177 176 180 177 168 161 161 165 177 177 176 172 164 160 152 153 165 165 170 172 162 148 148 141 140 136 125 126 142 158 162 174 181 168 168 157 134
176 179 182 184 182 177 175 172 170 164 161 162 167 177 181 172 168 172 173 169 166 177 178 169 174 174 166 168 162 159 154 147 138 125 150 161 154 161 171 172 179 166 160
212 206 199 187 186 189 183 175 174 169 158 161 168 167 165 164 174 179 178 173 179 183 171 181 183 182 195 168 161 158 156 157 160 167 195 187 172 177 176 166 167 171 172
218 211 212 208 199 192 186 180 176 165 163 169 170 168 166 167 178 180 176 187 195 189 188 194 184 193 198 174 173 172 168 172 180 183 190 206 122 141 165 147 140 191 207
219 218 215 216 211 192 182 174 162 163 168 171 175 175 171 173 174 176 187 196 193 192 197 203 204 202 212 186 181 177 183 188 198 202 200 196 216 209 177 177 189 235 244
220 217 210 201 194 188 177 165 165 167 174 182 183 181 175 173 176 192 200 197 191 200 204 198 201 209 229 205 186 172 178 194 216 220 214 209 220 225 185 176 204 253 282
255 223 196 173 179 187 169 166 173 175 188 192 189 183 178 179 188 198 202 199 196 205 202 207 210 210 219 210 191 177 182 198 221 229 232 222 221 216 182 180 192 225 256
292 218 170 177 192 177 166 173 177 193 195 185 180 183 186 187 191 189 192 189 192 197 204 212 221 219 220 212 197 183 185 200 208 218 230 237 218 210 201 192 204 223 224
348 95 155 186 187 167 163 172 192 194 170 171 180 186 190 190 185 183 191 186 183 201 217 220 235 235 228 217 206 193 196 196 203 218 226 234 214 205 205 206 219 216 196
1 42 120 117 103 175 164 180 197 162 160 168 184 190 194 190 181 182 190 194 189 204 222 223 230 239 235 228 217 206 203 200 205 222 220 218 205 199 209 222 216 201 197
44 61 91 109 90 334 165 178 163 146 153 172 183 182 186 191 186 191 192 195 200 206 219 227 229 231 230 226 215 206 204 202 206 218 215 210 202 201 221 228 220 211 210
88 81 109 149 230 239 224 185 161 147 151 171 182 183 186 192 198 208 209 210 219 212 213 225 221 218 230 232 213 200 205 203 202 181 181 195 203 220 233 239 238 226 216
180 186 215 213 234 224 228 203 181 164 161 177 192 198 196 197 203 206 233 239 233 239 233 233 227 232 234 223 207 209 211 200 175 165 195 212 217 223 230 236 241 233 227